Weather History for Kearney, NE

Change the Weather History Date:

Friday, March 7, 2014

  Actual Average Record
Temperature  
Mean Temperature 35 °F 34 °F  
Max Temperature 45 °F 47 °F 71 °F (2000)
Min Temperature 25 °F 22 °F -13 °F (1943)
Degree Days  
Heating Degree Days 30 31  
Cooling Degree Days 0 0  
Moisture  
Dew Point 26 °F    
Average Humidity 69    
Maximum Humidity 89    
Minimum Humidity 48    
Precipitation  
Precipitation 0.00 in - 1.48 in (1990)
Sea Level Pressure  
Sea Level Pressure 29.93 in    
Wind  
Wind Speed 18 mph (North)    
Max Wind Speed 31 mph    
Max Gust Speed 39 mph    
Visibility 9 miles    
Events      
T = Trace of Precipitation, MM = Missing Value Source: NWS Daily Summary

Daily Weather History Graph

Daily Weather History Graph

Search for Another Location

Airport:

Trip Planner

Search our weather history database for the weather conditions in past years. The results will help you decide how hot, cold, wet, or windy it might be!

Date:

Astronomy

Mar. 07, 2014 Rise Set
Actual Time 7:00 AM CST 6:34 PM CST
Civil Twilight 6:33 AM CST 7:01 PM CST
Nautical Twilight 6:01 AM CST 7:33 PM CST
Astronomical Twilight 5:29 AM CST 8:05 PM CST
Moon 10:52 AM CST (3/7) 12:42 AM CST (3/7)
Length of Visible Light 12h 28m
Length of Day
11h 33m
Waxing Crescent, 42% of the Moon is Illuminated
Mar 7
Waxing Crescent
Mar 8
First Quarter
Mar 16
Full
Mar 23
Last Quarter
Mar 30
New

Hourly Weather History & Observations

Time (CST) Temp. Windchill Dew Point Humidity Pressure Visibility Wind Dir Wind Speed Gust Speed Precip Events Conditions
12:15 AM 39.2 °F 30.5 °F 35.6 °F 87% 29.72 in 10.0 mi SSW 16.1 mph - N/A   Clear
12:35 AM 39.2 °F 32.5 °F 35.6 °F 87% 29.72 in 10.0 mi SSW 10.4 mph - N/A   Clear
12:55 AM 39.2 °F 33.0 °F 33.8 °F 81% 29.73 in 10.0 mi SSW 9.2 mph - N/A   Clear
1:15 AM 39.2 °F 34.2 °F 33.8 °F 81% 29.73 in 10.0 mi SSW 6.9 mph - N/A   Clear
1:35 AM 37.4 °F 31.4 °F 33.8 °F 87% 29.73 in 10.0 mi SSW 8.1 mph - N/A   Clear
1:55 AM 37.4 °F 30.3 °F 33.8 °F 87% 29.72 in 10.0 mi SSW 10.4 mph - N/A   Clear
2:15 AM 37.4 °F 33.8 °F 33.8 °F 87% 29.73 in 10.0 mi SSW 4.6 mph - N/A   Clear
2:35 AM 37.4 °F 32.8 °F 33.8 °F 87% 29.73 in 10.0 mi WSW 5.8 mph - N/A   Clear
2:55 AM 35.6 °F 28.6 °F 30.2 °F 81% 29.72 in 8.0 mi South 9.2 mph - N/A   Clear
3:15 AM 35.6 °F 28.0 °F 30.2 °F 81% 29.71 in 8.0 mi SSW 10.4 mph - N/A   Clear
3:35 AM 35.6 °F 28.6 °F 32.0 °F 87% 29.72 in 8.0 mi WSW 9.2 mph - N/A   Clear
3:55 AM 33.8 °F 26.4 °F 30.2 °F 87% 29.74 in 7.0 mi NW 9.2 mph - N/A   Clear
4:15 AM 35.6 °F 31.7 °F 30.2 °F 81% 29.74 in 8.0 mi WNW 4.6 mph - N/A   Clear
4:35 AM 33.8 °F - 28.4 °F 81% 29.74 in 7.0 mi Calm Calm - N/A   Clear
4:55 AM 30.2 °F 26.7 °F 26.6 °F 86% 29.75 in 5.0 mi NNE 3.5 mph - N/A   Clear
5:15 AM 30.2 °F 25.4 °F 28.4 °F 93% 29.76 in 5.0 mi North 4.6 mph - N/A   Partly Cloudy
5:35 AM 30.2 °F 22.6 °F 28.4 °F 93% 29.77 in 6.0 mi NNW 8.1 mph - N/A   Mostly Cloudy
5:55 AM 33.8 °F 25.3 °F 30.2 °F 87% 29.77 in 10.0 mi North 11.5 mph - N/A   Overcast
6:15 AM 37.4 °F 30.8 °F 33.8 °F 87% 29.78 in 10.0 mi North 9.2 mph - N/A   Mostly Cloudy
6:35 AM 37.4 °F 29.8 °F 33.8 °F 87% 29.79 in 10.0 mi North 11.5 mph - N/A   Partly Cloudy
6:55 AM 37.4 °F 29.3 °F 32.0 °F 81% 29.80 in 10.0 mi North 12.7 mph - N/A   Clear
7:15 AM 35.6 °F 27.1 °F 32.0 °F 87% 29.81 in 10.0 mi North 12.7 mph - N/A   Clear
7:35 AM 37.4 °F 28.2 °F 32.0 °F 81% 29.82 in 10.0 mi North 16.1 mph 21.9 mph N/A   Clear
7:55 AM 37.4 °F 28.9 °F 32.0 °F 81% 29.82 in 10.0 mi North 13.8 mph - N/A   Clear
8:15 AM 37.4 °F 27.2 °F 30.2 °F 75% 29.83 in 10.0 mi North 19.6 mph - N/A   Clear
8:35 AM 37.4 °F 26.9 °F 32.0 °F 81% 29.85 in 10.0 mi North 20.7 mph 27.6 mph N/A   Partly Cloudy
8:55 AM 37.4 °F 26.1 °F 30.2 °F 75% 29.85 in 10.0 mi North 24.2 mph 31.1 mph N/A   Scattered Clouds
9:15 AM 37.4 °F 26.4 °F 32.0 °F 81% 29.86 in 10.0 mi North 23.0 mph 29.9 mph N/A   Overcast
9:35 AM 37.4 °F 25.4 °F 30.2 °F 75% 29.87 in 10.0 mi North 27.6 mph 38.0 mph N/A   Overcast
9:55 AM 37.4 °F 26.6 °F 30.2 °F 75% 29.88 in 10.0 mi North 21.9 mph 33.4 mph N/A   Overcast
10:15 AM 37.4 °F 26.1 °F 30.2 °F 75% 29.89 in 10.0 mi North 24.2 mph 29.9 mph N/A   Overcast
10:35 AM 37.4 °F 25.9 °F 28.4 °F 70% 29.92 in 10.0 mi North 25.3 mph 32.2 mph N/A   Overcast
10:55 AM 37.4 °F 26.6 °F 28.4 °F 70% 29.95 in 10.0 mi NNE 21.9 mph 29.9 mph N/A   Overcast
11:15 AM 37.4 °F 27.2 °F 28.4 °F 70% 29.94 in 10.0 mi NNE 19.6 mph - N/A   Mostly Cloudy
11:35 AM 39.2 °F 28.3 °F 28.4 °F 65% 29.93 in 10.0 mi NNE 25.3 mph 29.9 mph N/A   Mostly Cloudy
11:55 AM 42.8 °F 32.5 °F 26.6 °F 53% 29.94 in 10.0 mi NNE 28.8 mph - N/A   Mostly Cloudy
12:15 PM 42.8 °F 33.3 °F 26.6 °F 53% 29.94 in 10.0 mi North 24.2 mph 29.9 mph N/A   Overcast
12:35 PM 41.0 °F 30.7 °F 26.6 °F 57% 29.94 in 10.0 mi North 25.3 mph 33.4 mph N/A   Overcast
12:55 PM 41.0 °F 29.8 °F 26.6 °F 57% 29.94 in 10.0 mi North 29.9 mph 35.7 mph N/A   Overcast
1:15 PM 41.0 °F 30.7 °F 24.8 °F 53% 29.95 in 10.0 mi North 25.3 mph 28.8 mph N/A   Overcast
1:35 PM 41.0 °F 29.7 °F 24.8 °F 53% 29.94 in 10.0 mi North 31.1 mph 36.8 mph N/A   Overcast
1:55 PM 41.0 °F 29.7 °F 24.8 °F 53% 29.93 in 10.0 mi North 31.1 mph 36.8 mph N/A   Overcast
2:15 PM 39.2 °F 28.0 °F 21.2 °F 49% 29.94 in 10.0 mi North 26.5 mph 36.8 mph N/A   Overcast
2:35 PM 39.2 °F 27.4 °F 21.2 °F 49% 29.94 in 10.0 mi North 29.9 mph 36.8 mph N/A   Scattered Clouds
2:55 PM 39.2 °F 27.2 °F 21.2 °F 49% 29.95 in 10.0 mi North 31.1 mph 39.1 mph N/A   Mostly Cloudy
3:15 PM 37.4 °F 25.0 °F 19.4 °F 48% 29.97 in 10.0 mi North 29.9 mph 36.8 mph N/A   Overcast
3:35 PM 35.6 °F 23.0 °F 19.4 °F 52% 29.98 in 10.0 mi NNE 27.6 mph 35.7 mph N/A   Overcast
3:55 PM 33.8 °F 21.0 °F 19.4 °F 56% 29.99 in 10.0 mi North 25.3 mph 32.2 mph N/A   Overcast
4:15 PM 32.0 °F 18.6 °F 17.6 °F 55% 30.00 in 10.0 mi North 25.3 mph 34.5 mph N/A   Overcast
4:35 PM 30.2 °F 16.5 °F 17.6 °F 60% 30.02 in 10.0 mi North 24.2 mph - N/A   Overcast
4:55 PM 30.2 °F 16.5 °F 17.6 °F 60% 30.04 in 10.0 mi NNE 24.2 mph 32.2 mph N/A   Overcast
5:15 PM 28.4 °F 13.3 °F 17.6 °F 64% 30.05 in 10.0 mi North 27.6 mph 31.1 mph N/A   Overcast
5:35 PM 28.4 °F 14.4 °F 17.6 °F 64% 30.06 in 10.0 mi North 23.0 mph 32.2 mph N/A   Overcast
5:55 PM 26.6 °F 12.0 °F 17.6 °F 69% 30.08 in 10.0 mi North 23.0 mph - N/A   Overcast
6:15 PM 26.6 °F 11.4 °F 19.4 °F 74% 30.09 in 7.0 mi NNE 25.3 mph 29.9 mph N/A   Overcast
6:35 PM 26.6 °F 12.4 °F 19.4 °F 74% 30.10 in 5.0 mi NNE 21.9 mph - N/A   Overcast
6:55 PM 24.8 °F 11.5 °F 19.4 °F 80% 30.11 in 5.0 mi NNE 17.3 mph - N/A   Overcast
7:15 PM 24.8 °F 12.4 °F 21.2 °F 86% 30.11 in 5.0 mi NNE 15.0 mph - N/A   Overcast
7:35 PM 24.8 °F 11.5 °F 19.4 °F 80% 30.13 in 8.0 mi NNE 17.3 mph - N/A   Overcast
7:55 PM 24.8 °F 12.4 °F 19.4 °F 80% 30.13 in 10.0 mi NNE 15.0 mph - N/A   Overcast
8:15 PM 24.8 °F 14.6 °F 19.4 °F 80% 30.14 in 10.0 mi NNE 10.4 mph - N/A   Overcast
8:35 PM 24.8 °F 14.0 °F 21.2 °F 86% 30.15 in 10.0 mi NNE 11.5 mph - N/A   Overcast
8:55 PM 24.8 °F 14.6 °F 19.4 °F 80% 30.16 in 10.0 mi NNE 10.4 mph - N/A   Overcast
9:15 PM 24.8 °F 13.4 °F 19.4 °F 80% 30.16 in 10.0 mi NNE 12.7 mph - N/A   Overcast
9:35 PM 24.8 °F 14.0 °F 19.4 °F 80% 30.17 in 10.0 mi North 11.5 mph - N/A   Overcast
9:55 PM 24.8 °F 14.6 °F 21.2 °F 86% 30.18 in 6.0 mi North 10.4 mph - N/A   Overcast
10:15 PM 26.6 °F 14.7 °F 19.4 °F 74% 30.18 in 10.0 mi North 15.0 mph - N/A   Overcast
10:35 PM 26.6 °F 13.8 °F 17.6 °F 69% 30.19 in 10.0 mi North 17.3 mph - N/A   Overcast
10:55 PM 26.6 °F 13.8 °F 17.6 °F 69% 30.19 in 10.0 mi North 17.3 mph - N/A   Overcast
11:15 PM 24.8 °F 11.9 °F 17.6 °F 74% 30.19 in 10.0 mi North 16.1 mph - N/A   Overcast
11:35 PM 24.8 °F 11.5 °F 17.6 °F 74% 30.20 in 10.0 mi North 17.3 mph - N/A   Overcast
11:55 PM 24.8 °F 12.9 °F 17.6 °F 74% 30.21 in 10.0 mi North 13.8 mph - N/A   Mostly Cloudy